This is the latest recevied weather packets stored in our database for station/object N5DGC. If no packets are shown the sender has not sent any weather packets the latest 10 day(s).
| Time | Temp. | Humidity | Pressure | Rain* | Wind** | Luminosity | Snow |
|---|---|---|---|---|---|---|---|
| 1778028661 | 18.89° C | 38% | 1228.4 hPa | 0 mm | - | 63 W/m² | - |
| 1778028358 | 18.33° C | 39% | 1228.6 hPa | 0 mm | - | 99 W/m² | - |
| 1778028055 | 17.78° C | 42% | 1228.7 hPa | 0 mm | - | 139 W/m² | - |
| 1778027751 | 17.78° C | 47% | 1228.9 hPa | 0 mm | - | 149 W/m² | - |
| 1778027448 | 17.78° C | 43% | 1229.2 hPa | 0 mm | - | 112 W/m² | - |
| 1778027143 | 18.89° C | 36% | 1229.3 hPa | 0 mm | - | 89 W/m² | - |
| 1778026839 | 19.44° C | 36% | 1229.2 hPa | 0 mm | - | 216 W/m² | - |
| 1778026536 | 19.44° C | 35% | 1229 hPa | 0 mm | - | 230 W/m² | - |
| 1778026233 | 19.44° C | 35% | 1229 hPa | 0 mm | - | 187 W/m² | - |
| 1778025931 | 20° C | 34% | 1228.9 hPa | 0 mm | - | 206 W/m² | - |
| 1778025628 | 20.56° C | 34% | 1228.9 hPa | 0 mm | - | 302 W/m² | - |
| 1778025326 | 20° C | 35% | 1228.6 hPa | 0 mm | - | 362 W/m² | - |
| 1778025022 | 18.89° C | 36% | 1229 hPa | 0 mm | - | 266 W/m² | - |
| 1778024720 | 20° C | 34% | 1228.6 hPa | 0 mm | - | 195 W/m² | - |
| 1778024416 | 19.44° C | 36% | 1228.7 hPa | 0 mm | - | 289 W/m² | - |
| 1778024114 | 18.89° C | 37% | 1228.9 hPa | 0 mm | - | 369 W/m² | - |
| 1778023811 | 18.89° C | 38% | 1229 hPa | 0 mm | - | 390 W/m² | - |
| 1778023509 | 18.89° C | 39% | 1229.2 hPa | 0 mm | - | 414 W/m² | - |
| 1778023206 | 18.33° C | 40% | 1229 hPa | 0 mm | - | 507 W/m² | - |
| 1778022903 | 18.33° C | 40% | 1229 hPa | 0 mm | - | 481 W/m² | - |
| 1778022602 | 18.33° C | 42% | 1229 hPa | 0 mm | - | 507 W/m² | - |
| 1778022299 | 17.78° C | 45% | 1228.9 hPa | 0 mm | - | 525 W/m² | - |
| 1778021995 | 17.78° C | 44% | 1229.3 hPa | 0 mm | - | 529 W/m² | - |
| 1778021692 | 17.78° C | 43% | 1229.3 hPa | 0 mm | - | 552 W/m² | - |
| 1778021388 | 17.78° C | 43% | 1229.1 hPa | 0 mm | - | 559 W/m² | - |
* Rain latest hour (hover to see other rain measurements)
** Current wind speed in m/s (hover to see current wind gust speed)